Time,TemperatureF,DewpointF,PressureIn,WindDirection,WindDirectionDegrees,WindSpeedMPH,WindSpeedGustMPH,Humidity,HourlyPrecipIn,Conditions,Clouds,dailyrainin,SoftwareType,DateUTC
2013-02-23 00:02:00,27.0,25.0,30.03,WSW,241,10.0,12.0,91,0.00,,,0.00,,2013-02-23 05:02:00,
2013-02-23 00:12:00,27.0,25.0,30.03,WSW,241,10.0,12.0,91,0.00,,,0.00,,2013-02-23 05:12:00,
2013-02-23 00:22:00,27.0,25.0,30.03,SW,229,10.0,12.0,91,0.00,,,0.00,,2013-02-23 05:22:00,
2013-02-23 00:32:00,27.0,25.0,30.03,SW,231,8.0,12.0,91,0.00,,,0.00,,2013-02-23 05:32:00,
2013-02-23 00:42:00,27.0,25.0,30.03,SW,231,8.0,12.0,91,0.00,,,0.00,,2013-02-23 05:42:00,
2013-02-23 00:52:00,27.0,25.0,30.03,SW,231,8.0,12.0,91,0.00,,,0.00,,2013-02-23 05:52:00,
2013-02-23 01:01:00,27.0,25.0,30.03,WSW,250,9.0,13.0,91,0.00,,,0.00,,2013-02-23 06:01:00,
2013-02-23 01:11:00,27.0,25.0,30.03,WSW,250,9.0,13.0,91,0.00,,,0.00,,2013-02-23 06:11:00,
2013-02-23 01:22:00,27.0,25.0,30.03,WSW,243,9.0,13.0,91,0.00,,,0.00,,2013-02-23 06:22:00,
2013-02-23 01:31:00,27.0,25.0,30.03,WSW,243,9.0,13.0,91,0.00,,,0.00,,2013-02-23 06:31:00,
2013-02-23 01:41:00,27.0,25.0,30.03,WSW,243,9.0,13.0,91,0.00,,,0.00,,2013-02-23 06:41:00,
2013-02-23 01:51:00,26.0,24.0,30.03,WSW,239,8.0,10.0,91,0.00,,,0.00,,2013-02-23 06:51:00,
2013-02-23 02:01:00,26.0,24.0,30.03,SW,236,9.0,12.0,91,0.00,,,0.00,,2013-02-23 07:01:00,
2013-02-23 02:11:00,26.0,24.0,30.03,SW,236,9.0,12.0,91,0.00,,,0.00,,2013-02-23 07:11:00,
2013-02-23 02:21:00,26.0,24.0,30.03,SW,236,9.0,12.0,91,0.00,,,0.00,,2013-02-23 07:21:00,
2013-02-23 02:32:00,26.0,23.0,30.03,WSW,255,8.0,10.0,89,0.00,,,0.00,,2013-02-23 07:32:00,
2013-02-23 02:42:00,26.0,23.0,30.03,WSW,255,8.0,10.0,89,0.00,,,0.00,,2013-02-23 07:42:00,
2013-02-23 02:52:00,26.0,23.0,30.03,WSW,241,9.0,12.0,89,0.00,,,0.00,,2013-02-23 07:52:00,
2013-02-23 03:01:00,26.0,23.0,30.03,WSW,250,8.0,10.0,87,0.00,,,0.00,,2013-02-23 08:01:00,
2013-02-23 03:11:00,26.0,23.0,30.03,WSW,250,8.0,10.0,87,0.00,,,0.00,,2013-02-23 08:11:00,
2013-02-23 03:21:00,26.0,23.0,30.03,WSW,250,8.0,10.0,87,0.00,,,0.00,,2013-02-23 08:21:00,
2013-02-23 03:31:00,26.0,23.0,30.03,WSW,250,8.0,10.0,87,0.00,,,0.00,,2013-02-23 08:31:00,
2013-02-23 03:52:00,25.0,21.0,30.03,WSW,256,9.0,12.0,86,0.00,,,0.00,,2013-02-23 08:52:00,
2013-02-23 04:01:00,25.0,21.0,30.03,WSW,249,12.0,14.0,86,0.00,,,0.00,,2013-02-23 09:01:00,
2013-02-23 04:11:00,25.0,21.0,30.03,WSW,249,12.0,14.0,86,0.00,,,0.00,,2013-02-23 09:11:00,
2013-02-23 04:21:00,25.0,21.0,30.03,West,261,10.0,15.0,85,0.00,,,0.00,,2013-02-23 09:21:00,
2013-02-23 04:31:00,25.0,21.0,30.02,West,271,8.0,12.0,86,0.00,,,0.00,,2013-02-23 09:31:00,
2013-02-23 04:42:00,25.0,21.0,30.02,West,271,8.0,12.0,86,0.00,,,0.00,,2013-02-23 09:42:00,
2013-02-23 04:51:00,25.0,21.0,30.02,West,275,9.0,9.0,86,0.00,,,0.00,,2013-02-23 09:51:00,
2013-02-23 05:01:00,24.0,20.0,30.02,West,274,8.0,13.0,85,0.00,,,0.00,,2013-02-23 10:01:00,
2013-02-23 05:11:00,24.0,20.0,30.02,West,274,8.0,13.0,85,0.00,,,0.00,,2013-02-23 10:11:00,
2013-02-23 05:21:00,24.0,20.0,30.02,West,274,8.0,13.0,85,0.00,,,0.00,,2013-02-23 10:21:00,
2013-02-23 05:31:00,24.0,20.0,30.03,WSW,252,7.0,8.0,85,0.00,,,0.00,,2013-02-23 10:31:00,
2013-02-23 05:42:00,24.0,20.0,30.03,WSW,252,7.0,8.0,85,0.00,,,0.00,,2013-02-23 10:42:00,
2013-02-23 05:52:00,24.0,20.0,30.03,WSW,237,7.0,9.0,84,0.00,,,0.00,,2013-02-23 10:52:00,
2013-02-23 06:02:00,25.0,21.0,30.03,WSW,242,7.0,8.0,85,0.00,,,0.00,,2013-02-23 11:02:00,
2013-02-23 06:11:00,25.0,21.0,30.03,WSW,242,7.0,8.0,85,0.00,,,0.00,,2013-02-23 11:11:00,
2013-02-23 06:21:00,25.0,21.0,30.03,WSW,246,8.0,9.0,86,0.00,,,0.00,,2013-02-23 11:21:00,
2013-02-23 06:32:00,24.0,21.0,30.03,WSW,257,9.0,10.0,88,0.00,,,0.00,,2013-02-23 11:32:00,
2013-02-23 06:42:00,24.0,21.0,30.03,WSW,257,9.0,10.0,88,0.00,,,0.00,,2013-02-23 11:42:00,
2013-02-23 06:52:00,24.0,21.0,30.03,WSW,257,9.0,10.0,88,0.00,,,0.00,,2013-02-23 11:52:00,
2013-02-23 07:02:00,24.0,21.0,30.04,WSW,248,9.0,10.0,88,0.00,,,0.00,,2013-02-23 12:02:00,
2013-02-23 07:11:00,24.0,21.0,30.04,WSW,248,9.0,10.0,88,0.00,,,0.00,,2013-02-23 12:11:00,
2013-02-23 07:21:00,24.0,21.0,30.04,WSW,250,7.0,8.0,88,0.00,,,0.00,,2013-02-23 12:21:00,
2013-02-23 07:32:00,24.0,21.0,30.04,WSW,244,7.0,9.0,88,0.00,,,0.00,,2013-02-23 12:32:00,
2013-02-23 07:42:00,24.0,21.0,30.04,WSW,244,7.0,9.0,88,0.00,,,0.00,,2013-02-23 12:42:00,
2013-02-23 07:52:00,24.0,21.0,30.03,WSW,253,7.0,7.0,89,0.00,,,0.00,,2013-02-23 12:52:00,
2013-02-23 08:01:00,24.0,21.0,30.04,WSW,251,7.0,8.0,89,0.00,,,0.00,,2013-02-23 13:01:00,
2013-02-23 08:11:00,24.0,21.0,30.04,WSW,242,7.0,9.0,88,0.00,,,0.00,,2013-02-23 13:11:00,
2013-02-23 08:22:00,24.0,21.0,30.04,WSW,242,7.0,9.0,88,0.00,,,0.00,,2013-02-23 13:22:00,
2013-02-23 08:32:00,24.0,21.0,30.03,West,266,7.0,7.0,88,0.00,,,0.00,,2013-02-23 13:32:00,
2013-02-23 08:42:00,24.0,21.0,30.03,West,260,6.0,8.0,88,0.00,,,0.00,,2013-02-23 13:42:00,
2013-02-23 08:52:00,24.0,21.0,30.03,West,260,6.0,8.0,88,0.00,,,0.00,,2013-02-23 13:52:00,
2013-02-23 09:02:00,24.0,21.0,30.03,West,274,6.0,10.0,87,0.00,,,0.00,,2013-02-23 14:02:00,
2013-02-23 09:11:00,24.0,21.0,30.03,West,274,6.0,10.0,87,0.00,,,0.00,,2013-02-23 14:11:00,
2013-02-23 09:21:00,25.0,21.0,30.04,West,273,7.0,7.0,86,0.00,,,0.00,,2013-02-23 14:21:00,
2013-02-23 09:32:00,25.0,21.0,30.04,West,269,8.0,9.0,85,0.00,,,0.00,,2013-02-23 14:32:00,
2013-02-23 09:42:00,25.0,21.0,30.04,West,269,8.0,9.0,85,0.00,,,0.00,,2013-02-23 14:42:00,
2013-02-23 09:52:00,26.0,22.0,30.04,West,272,7.0,8.0,84,0.00,,,0.00,,2013-02-23 14:52:00,
2013-02-23 10:01:00,26.0,22.0,30.04,West,259,6.0,8.0,83,0.00,,,0.00,,2013-02-23 15:01:00,
2013-02-23 10:11:00,26.0,22.0,30.04,West,259,6.0,8.0,83,0.00,,,0.00,,2013-02-23 15:11:00,
2013-02-23 10:21:00,26.0,22.0,30.04,West,259,6.0,8.0,83,0.00,,,0.00,,2013-02-23 15:21:00,
2013-02-23 10:32:00,28.0,22.0,30.03,West,272,6.0,9.0,78,0.00,,,0.00,,2013-02-23 15:32:00,
2013-02-23 10:42:00,28.0,22.0,30.03,West,272,6.0,9.0,78,0.00,,,0.00,,2013-02-23 15:42:00,
2013-02-23 10:51:00,29.0,21.0,30.05,WSW,253,8.0,10.0,73,0.00,,,0.00,,2013-02-23 15:51:00,
2013-02-23 10:52:00,29.0,22.0,30.04,WSW,256,7.0,9.0,76,0.00,,,0.00,,2013-02-23 15:52:00,
2013-02-23 11:01:00,29.0,22.0,30.05,West,262,7.0,12.0,74,0.00,,,0.00,,2013-02-23 16:01:00,
2013-02-23 11:11:00,29.0,22.0,30.05,West,262,7.0,12.0,74,0.00,,,0.00,,2013-02-23 16:11:00,
2013-02-23 11:21:00,29.0,21.0,30.05,WSW,253,8.0,10.0,73,0.00,,,0.00,,2013-02-23 16:21:00,
2013-02-23 11:31:00,29.0,21.0,30.05,WSW,253,8.0,10.0,73,0.00,,,0.00,,2013-02-23 16:31:00,
2013-02-23 11:42:00,29.0,21.0,30.05,WSW,253,8.0,10.0,73,0.00,,,0.00,,2013-02-23 16:42:00,
2013-02-23 12:01:00,33.0,23.0,30.04,West,267,7.0,12.0,66,0.00,,,0.00,,2013-02-23 17:01:00,
2013-02-23 12:11:00,34.0,23.0,30.03,WSW,246,6.0,9.0,65,0.00,,,0.00,,2013-02-23 17:11:00,
2013-02-23 12:21:00,34.0,23.0,30.03,WSW,246,6.0,9.0,65,0.00,,,0.00,,2013-02-23 17:21:00,
2013-02-23 12:52:00,36.0,23.0,30.04,WSW,256,7.0,10.0,60,0.00,,,0.00,,2013-02-23 17:52:00,
2013-02-23 13:01:00,36.0,23.0,30.04,West,260,7.0,8.0,60,0.00,,,0.00,,2013-02-23 18:01:00,
2013-02-23 13:21:00,36.0,23.0,30.03,WSW,250,6.0,6.0,59,0.00,,,0.00,,2013-02-23 18:21:00,
2013-02-23 13:32:00,36.0,23.0,30.03,West,271,6.0,7.0,60,0.00,,,0.00,,2013-02-23 18:32:00,
2013-02-23 14:01:00,38.0,24.0,30.02,WSW,250,0.0,0.0,57,0.00,,,0.00,,2013-02-23 19:01:00,
2013-02-23 14:11:00,37.0,24.0,30.01,SW,221,8.0,8.0,58,0.00,,,0.00,,2013-02-23 19:11:00,
2013-02-23 14:21:00,37.0,24.0,30.01,SW,221,8.0,8.0,58,0.00,,,0.00,,2013-02-23 19:21:00,
2013-02-23 14:32:00,36.0,24.0,30.02,SSW,213,8.0,9.0,61,0.00,,,0.00,,2013-02-23 19:32:00,
2013-02-23 14:52:00,36.0,24.0,30.02,SSW,192,9.0,10.0,62,0.00,,,0.00,,2013-02-23 19:52:00,
2013-02-23 15:01:00,35.0,24.0,30.02,SSW,212,10.0,13.0,63,0.00,,,0.00,,2013-02-23 20:01:00,
2013-02-23 15:11:00,35.0,24.0,30.02,SSW,212,10.0,13.0,63,0.00,,,0.00,,2013-02-23 20:11:00,
2013-02-23 15:21:00,35.0,24.0,30.02,SW,219,9.0,13.0,64,0.00,,,0.00,,2013-02-23 20:21:00,
2013-02-23 15:32:00,35.0,24.0,30.01,SW,231,8.0,10.0,64,0.00,,,0.00,,2013-02-23 20:32:00,
2013-02-23 15:41:00,35.0,24.0,30.01,SW,231,8.0,10.0,64,0.00,,,0.00,,2013-02-23 20:41:00,
2013-02-23 15:52:00,35.0,24.0,30.01,SW,220,9.0,12.0,65,0.00,,,0.00,,2013-02-23 20:52:00,
2013-02-23 16:01:00,34.0,24.0,30.01,SW,233,9.0,9.0,66,0.00,,,0.00,,2013-02-23 21:01:00,
2013-02-23 16:11:00,34.0,24.0,30.01,SW,233,9.0,9.0,66,0.00,,,0.00,,2013-02-23 21:11:00,
2013-02-23 16:22:00,34.0,24.0,30.01,SW,233,9.0,9.0,66,0.00,,,0.00,,2013-02-23 21:22:00,
2013-02-23 16:32:00,34.0,24.0,30.00,West,268,0.0,0.0,66,0.00,,,0.00,,2013-02-23 21:32:00,
2013-02-23 16:42:00,34.0,24.0,30.00,West,268,0.0,0.0,66,0.00,,,0.00,,2013-02-23 21:42:00,
2013-02-23 16:52:00,34.0,24.0,30.00,West,268,0.0,0.0,66,0.00,,,0.00,,2013-02-23 21:52:00,
2013-02-23 17:01:00,33.0,24.0,30.01,WSW,241,7.0,10.0,68,0.00,,,0.00,,2013-02-23 22:01:00,
2013-02-23 17:11:00,33.0,24.0,30.01,WSW,241,7.0,10.0,68,0.00,,,0.00,,2013-02-23 22:11:00,
2013-02-23 17:22:00,33.0,24.0,30.01,WSW,241,7.0,10.0,68,0.00,,,0.00,,2013-02-23 22:22:00,
2013-02-23 17:31:00,32.0,24.0,30.01,WSW,250,2.0,8.0,71,0.00,,,0.00,,2013-02-23 22:31:00,
2013-02-23 17:42:00,32.0,24.0,30.01,WSW,250,2.0,8.0,71,0.00,,,0.00,,2013-02-23 22:42:00,
2013-02-23 17:52:00,32.0,24.0,30.01,West,279,0.0,0.0,71,0.00,,,0.00,,2013-02-23 22:52:00,
2013-02-23 18:11:00,31.0,24.0,30.01,WSW,252,7.0,8.0,74,0.00,,,0.00,,2013-02-23 23:11:00,
2013-02-23 18:21:00,31.0,24.0,30.01,WSW,252,7.0,8.0,74,0.00,,,0.00,,2013-02-23 23:21:00,
2013-02-23 18:31:00,30.0,23.0,30.02,West,275,6.0,9.0,75,0.00,,,0.00,,2013-02-23 23:31:00,
2013-02-23 18:42:00,30.0,23.0,30.02,West,275,6.0,9.0,75,0.00,,,0.00,,2013-02-23 23:42:00,
2013-02-23 18:52:00,29.0,22.0,30.02,WSW,243,2.0,7.0,76,0.00,,,0.00,,2013-02-23 23:52:00,
2013-02-23 19:01:00,28.0,22.0,30.02,WSW,243,3.0,6.0,78,0.00,,,0.00,,2013-02-24 00:01:00,
2013-02-23 19:11:00,28.0,22.0,30.02,WSW,243,3.0,6.0,78,0.00,,,0.00,,2013-02-24 00:11:00,
2013-02-23 19:22:00,28.0,22.0,30.02,WSW,243,3.0,6.0,78,0.00,,,0.00,,2013-02-24 00:22:00,
2013-02-23 19:32:00,27.0,23.0,30.03,WSW,249,5.0,7.0,83,0.00,,,0.00,,2013-02-24 00:32:00,
2013-02-23 19:42:00,27.0,23.0,30.03,WSW,249,5.0,7.0,83,0.00,,,0.00,,2013-02-24 00:42:00,
2013-02-23 19:52:00,27.0,23.0,30.03,WSW,249,5.0,7.0,83,0.00,,,0.00,,2013-02-24 00:52:00,
2013-02-23 20:01:00,26.0,22.0,30.03,WSW,241,6.0,7.0,85,0.00,,,0.00,,2013-02-24 01:01:00,
2013-02-23 20:11:00,26.0,22.0,30.03,WSW,241,6.0,7.0,85,0.00,,,0.00,,2013-02-24 01:11:00,
2013-02-23 20:22:00,26.0,22.0,30.03,WSW,241,6.0,7.0,85,0.00,,,0.00,,2013-02-24 01:22:00,
2013-02-23 20:31:00,24.0,21.0,30.04,WSW,254,6.0,7.0,87,0.00,,,0.00,,2013-02-24 01:31:00,
2013-02-23 20:42:00,24.0,21.0,30.04,WSW,254,6.0,7.0,87,0.00,,,0.00,,2013-02-24 01:42:00,
2013-02-23 20:52:00,24.0,21.0,30.04,WSW,254,6.0,7.0,87,0.00,,,0.00,,2013-02-24 01:52:00,
2013-02-23 21:01:00,23.0,20.0,30.04,WSW,249,6.0,7.0,89,0.00,,,0.00,,2013-02-24 02:01:00,
2013-02-23 21:11:00,23.0,20.0,30.04,WSW,249,6.0,7.0,89,0.00,,,0.00,,2013-02-24 02:11:00,
2013-02-23 21:21:00,23.0,20.0,30.04,WSW,249,6.0,7.0,89,0.00,,,0.00,,2013-02-24 02:21:00,
2013-02-23 21:32:00,22.0,19.0,30.04,North,0,0.0,0.0,89,0.00,,,0.00,,2013-02-24 02:32:00,
2013-02-23 21:42:00,22.0,19.0,30.04,North,0,0.0,0.0,89,0.00,,,0.00,,2013-02-24 02:42:00,
2013-02-23 21:52:00,22.0,19.0,30.04,North,0,0.0,0.0,89,0.00,,,0.00,,2013-02-24 02:52:00,
2013-02-23 22:02:00,22.0,20.0,30.04,North,0,0.0,0.0,90,0.00,,,0.00,,2013-02-24 03:02:00,
2013-02-23 22:11:00,22.0,20.0,30.04,North,0,0.0,0.0,91,0.00,,,0.00,,2013-02-24 03:11:00,
2013-02-23 22:21:00,22.0,20.0,30.04,North,0,0.0,0.0,91,0.00,,,0.00,,2013-02-24 03:21:00,
2013-02-23 22:32:00,21.0,19.0,30.04,North,0,0.0,0.0,91,0.00,,,0.00,,2013-02-24 03:32:00,
2013-02-23 22:42:00,21.0,19.0,30.04,North,0,0.0,0.0,91,0.00,,,0.00,,2013-02-24 03:42:00,
2013-02-23 22:52:00,21.0,19.0,30.04,North,0,0.0,0.0,91,0.00,,,0.00,,2013-02-24 03:52:00,
2013-02-23 23:01:00,21.0,19.0,30.05,North,0,0.0,0.0,92,0.00,,,0.00,,2013-02-24 04:01:00,
2013-02-23 23:11:00,21.0,19.0,30.05,North,0,0.0,0.0,92,0.00,,,0.00,,2013-02-24 04:11:00,
2013-02-23 23:21:00,21.0,19.0,30.05,North,0,0.0,0.0,92,0.00,,,0.00,,2013-02-24 04:21:00,
2013-02-23 23:32:00,21.0,19.0,30.06,North,0,0.0,0.0,92,0.00,,,0.00,,2013-02-24 04:32:00,
2013-02-23 23:42:00,21.0,19.0,30.06,North,0,0.0,0.0,92,0.00,,,0.00,,2013-02-24 04:42:00,
2013-02-23 23:52:00,21.0,19.0,30.06,North,0,0.0,0.0,92,0.00,,,0.00,,2013-02-24 04:52:00,